Flag for U.S.A. Weather past 2 weeks in Aspen, Colorado, U.S.A.

Now
40 °F

Mostly cloudy.


Feels Like: 36 °F
Forecast: 40 / 59 °F
Wind: 6 mph from Southeast

Location: Aspen-Pitkin County Airport

Current Time: May 22, 2015 at 7:31:59 AM

Latest Report: May 22, 2015 at 6:53 AM


Visibility: 10 mi

Pressure: 29.89 "Hg

Humidity: 86%

Dew point: 36 °F

Location of AspenLocation

Historic Weather in Aspen — Graph

°F

Aspen temperature yesterday

Maximum temperature yesterday: 63 °F (at 3:53 PM)
Minimum temperature yesterday: 33 °F (at 5:53 AM)
Average temperature yesterday: 48 °F

Past Weeks' High & Low Weather Summary

 TemperatureHumidityPressure
High65 °F (May 12, 1:53 PM)97% (May 9, 6:53 PM)30.14 "Hg (May 9, 6:53 PM)
Low28 °F (May 16, 4:53 AM)20% (May 14, 10:53 AM)29.54 "Hg (May 8, 4:53 PM)
Average44 °F65%29.84 "Hg
* Reported May 7 5:53 AM — May 22 5:53 AM, Aspen, Weather by CustomWeather, © 2015

Note: Actual official high and low records may vary slightly from our data, if they occured in-between our weather recording intervals... More about our weather records

Advertising

Aspen weather history for previous 24 hours

 ConditionsComfort  
Time TempWeatherWind HumidityBarometerVisibility
5:53 AM
Fri, May 22
40 °FOvercast.5 mph89%29.85 "Hg10 mi
4:53 AM39 °FLight rain. Low clouds.7 mph89%29.82 "Hg9 mi
3:53 AM42 °FLight rain. Mostly cloudy.9 mph89%29.77 "Hg10 mi
2:53 AM43 °FMostly cloudy.3 mph93%29.75 "Hg10 mi
1:53 AM43 °FLight rain. Mostly cloudy.No wind93%29.75 "Hg7 mi
12:53 AM44 °FLight rain. Mostly cloudy.No wind89%29.76 "Hg7 mi
11:53 PM
Thu, May 21
45 °FOvercast.No wind86%29.77 "Hg10 mi
10:53 PM45 °FOvercast.3 mph86%29.78 "Hg10 mi
9:53 PM45 °FMostly cloudy.5 mph82%29.81 "Hg10 mi
8:53 PM46 °FPartly sunny.10 mph79%29.79 "Hg10 mi
7:53 PM47 °FSunny.8 mph77%29.84 "Hg10 mi
6:53 PM46 °FLight rain. Cloudy.9 mph83%29.91 "Hg3 mi
5:53 PM52 °FPartly sunny.8 mph55%29.85 "Hg10 mi
4:53 PM56 °FMostly cloudy.23 mph42%29.84 "Hg10 mi
3:53 PM63 °FScattered clouds.5 mph26%29.76 "Hg10 mi
2:53 PM62 °FPartly sunny.12 mph24%29.81 "Hg10 mi
1:53 PM62 °FSunny.5 mph21%29.83 "Hg10 mi
12:53 PM62 °FScattered clouds.5 mph26%29.83 "Hg10 mi
11:53 AM61 °FScattered clouds.6 mph32%29.87 "Hg10 mi
10:53 AM56 °FPassing clouds.7 mph42%29.90 "Hg10 mi
9:53 AM52 °FPassing clouds.8 mph50%29.92 "Hg10 mi
8:53 AM51 °FPassing clouds.6 mph46%29.90 "Hg10 mi
7:53 AM44 °FSunny.No wind53%29.94 "Hg10 mi
Weather by CustomWeather, © 2015

See weather overviewHow to use our weather pages